Regional Weather Roundup
Issued by NWS New Orleans/Baton Rouge, LA

Home | Current Version | Previous Version | Text Only | Print | Product List | Glossary On
Versions: 1 2 3 4 5 6 7 8 9 10 11 12 13 14 15 16 17 18 19 20 21 22 23 24 25 26 27 28 29 30 31 32 33 34 35 36 37 38 39 40 41 42 43 44 45 46 47 48 49 50
534
ASUS44 KLIX 222113
RWRLIX
NEW ORLEANS REGIONAL WEATHER ROUNDUP
NATIONAL WEATHER SERVICE NEW ORLEANS LA
400 PM CDT SAT JUL 22 2017

NOTE: "FAIR" INDICATES FEW OR NO CLOUDS BELOW 12,000 FEET WITH NO
      SIGNIFICANT WEATHER AND/OR OBSTRUCTIONS TO VISIBILITY.
      SKY/WX - SKY CONDITION AND SIGNIFICANT WEATHER.
      TMP - AIR TEMPERATURE.     DP    - DEWPOINT TEMPERATURE.
      RH  - RELATIVE HUMIDITY.   PRES  - PRESSURE.
      HI  - HEAT INDEX.          WCI   - WIND CHILL INDEX.

*  THESE STATIONS ARE NOT NWS OR FAA STATIONS AND ARE NOT UNDER
   NWS QUALITY CONTROL.

LAZ038-040-048-061>063-065>067-069-222200-
SOUTHEAST LOUISIANA

CITY           SKY/WX    TMP DP  RH WIND       PRES   REMARKS
N.O. INTL ARPT CLOUDY    77  73  87 S9        30.00F
N.O. LAKEFRONT LGT RAIN  77  75  93 S16       29.99F
N.O. DOWNTOWN* LGT RAIN  78  74  87 S7          N/A
RESERVE*         N/A     79  73  83 W3        30.01F
SLIDELL        PTSUNNY   83  72  69 NW8       29.98F
BATON ROUGE    LGT RAIN  76  72  87 S14       30.01R
BOOTHVILLE     NOT AVBL
BELLE CHASSE   NOT AVBL
BOGALUSA*        N/A     84  72  67 SW8       30.01R
GALLIANO*      CLOUDY    80  71  74 CALM      29.99F THUNDER
NEW ROADS*     LGT RAIN  77  74  89 S9G17     29.98S
GONZALES*      RAIN      75  73  93 CALM      30.00F
HAMMOND*       CLOUDY    81  70  69 SW5       30.02R
HOUMA*         MOSUNNY   84  75  74 NW6       30.00F
PORT FOURCHON* PTCLDY    84  75  74 W17G28    29.99F

$$

MSZ070-080>082-222200-
SOUTHERN MISSISSIPPI

CITY           SKY/WX    TMP DP  RH WIND       PRES   REMARKS
MCCOMB         LGT RAIN  75  72  90 S17G28    30.01R FOG
GULFPORT       MOSUNNY   88  75  65 S8        29.97F HX  97
BILOXI         MOSUNNY   88  76  68 SW8       29.97F HX  99
PASCAGOULA     LGT RAIN  85  76  74 E8        29.97S
STENNIS ARPT*  MOSUNNY   90  75  62 S8        29.97F HX 100

$$

COASTAL OBSERVATIONS
LAKE AND NEARSHORE STATIONS

STATION/POSITION TIME  TEMP    WIND        PRES    WAVE
                       AIR SEA DIR/SP/G            HT/PER
                 (UTC) (F)     (DEG/KT/KT) (MB)    (FT/S)
PASCAGOULA       2048   88     220/ 12/ 13 1014.7
WAVELAND YACHT   2048   86 90  170/  7/ 10 1015.3
GRAND ISLE       2048   78 89  290/ 10/ 11 1016.5
SOUTHWEST PASS   2048   85     230/  8/ 12   N/A
NEW CANAL        2048   77 87  220/  7/ 10 1016.0
SHELL BEACH      2048   83 91  230/ 12/ 17 1015.6

OFFSHORE STATIONS

STATION/POSITION TIME  TEMP    WIND        PRES    WAVE
                       AIR SEA DIR/SP/G            HT/PER
                 (UTC) (F)     (DEG/KT/KT) (MB)    (FT/S)
64 S DAUPHIN ISL 2050   83 86  200/  8/ 10 1015.8    1/ 4

$$





USA.gov is the U.S. government's official web portal to all federal, state and local government web resources and services.